Weather Roundup
Issued by NWS Springfield, MO

Home | Current Version | Previous Version | Text Only | Print | Product List | Glossary On
Versions: 1 2 3 4 5 6 7 8 9 10 11 12 13 14 15 16 17 18 19 20 21 22 23 24 25 26 27 28 29 30 31 32 33 34 35 36 37 38 39 40 41 42 43 44 45 46 47 48 49 50
000
NZUS99 KSGF 031507
HRRSGF

HOURLY WEATHER
NATIONAL WEATHER SERVICE SPRINGFIELD MO
1000 AM CDT THU SEP 03 2015

......SGF CWA......

CITY           SKY/WX    TMP DP  RH WIND       PRES   REMARKS
SPRINGFIELD    SUNNY     79  68  69 S7        30.04S
JOPLIN         SUNNY     81  68  64 SW10      30.03S
WEST PLAINS    SUNNY     80  66  62 VRB3      30.08S
ROLLA          MOSUNNY   81  68  64 S9        30.04R
OSAGE BEACH    SUNNY     81  68  65 SW7       30.04R
BRANSON        MOSUNNY   81  68  65 CALM      30.07S

......SURROUNDING SGF CWA......

CITY           SKY/WX    TMP DP  RH WIND       PRES   REMARKS
CHANUTE        SUNNY     80  68  66 S14       29.99S
PARSONS        SUNNY     78  69  73 S9        30.01S
COFFEYVILLE    SUNNY     79  70  74 S12       30.00S
EMPORIA        SUNNY     81  67  62 S15       29.96S
GROVE OK       SUNNY     82  70  65 S7        30.03S
ROGERS AR      SUNNY     81  69  67 S5        30.07R
SILOAM SPRINGS SUNNY     81  66  61 S8        30.04R
HARRISON AR    SUNNY     78  69  73 SE6       30.07S
NEAR YELLVILLE SUNNY     79  64  61 CALM      30.04S

......KANSAS AND MISSOURI......

CITY           SKY/WX    TMP DP  RH WIND       PRES   REMARKS
KANSAS CTY INT PTSUNNY   81  69  67 SW8       29.97R
DOWNTOWN KC    MOSUNNY   85  67  54 SW9       29.95S
COLUMBIA       MOSUNNY   78  70  76 S5        30.02R
SEDALIA        SUNNY     82  68  62 SW10      30.02S
ST JOSEPH      PTSUNNY   77  69  76 S12       29.93F
ST LOUIS       MOSUNNY   87  69  54 VRB6      30.03S HX  91
SPIRIT OF STL  MOSUNNY   82  71  69 S5        30.01S
KIRKSVILLE     MOSUNNY   81  69  67 SW10      30.00S
WICHITA        MOSUNNY   82  65  56 S15       29.94F
TOPEKA         MOSUNNY   79  67  66 S8        29.94F
OLATHE         SUNNY     78  68  71 S9        29.98R

......TENNESSEE......

CITY           SKY/WX    TMP DP  RH WIND       PRES   REMARKS
MEMPHIS        MOSUNNY   84  70  62 CALM      30.04S
NASHVILLE      MOSUNNY   87  67  51 NE5       30.05S HX  90

......ARKANSAS.......

CITY           SKY/WX    TMP DP  RH WIND       PRES   REMARKS
FAYETTEVILLE   SUNNY     80  70  71 S9        30.05S
FT SMITH       SUNNY     80  68  66 E6        30.01S
LITTLE ROCK    SUNNY     84  70  62 E3        30.03S

......OKLAHOMA.......

CITY           SKY/WX    TMP DP  RH WIND       PRES   REMARKS
TULSA          PTSUNNY   80  68  66 S12       29.99R
PONCA CITY     SUNNY     82  66  58 S7        29.97S
MCALESTER      MOSUNNY   82  69  64 S3        30.01S
OKLAHOMA CITY  MOSUNNY   80  67  64 S12       30.00R

......IOWA............

CITY           SKY/WX    TMP DP  RH WIND       PRES   REMARKS
DES MOINES     PTSUNNY   78  69  73 S10       29.92S
QUAD CITIES    MOSUNNY   83  70  64 SW6       29.95S

......ILLINOIS........

CITY           SKY/WX    TMP DP  RH WIND       PRES   REMARKS
QUINCY         SUNNY     83  71  67 SW7       30.00S
CHICAGO        MOSUNNY   82  69  64 W12       29.94F




USA.gov is the U.S. government's official web portal to all federal, state and local government web resources and services.